Regional Weather Roundup
Issued by NWS

Home | Current Version | Previous Version | Graphics & Text | Print | Product List | Glossary Off
Versions: 1 2 3 4 5 6 7 8 9 10 11 12 13 14 15 16 17 18 19 20 21 22 23 24 25 26 27 28 29 30 31 32 33 34 35 36 37 38 39 40 41 42 43 44 45 46 47 48 49 50

000
ASUS44 KMEG 231210
RWRTN
TENNESSEE HOURLY STATE WEATHER ROUNDUP
NATIONAL WEATHER SERVICE MEMPHIS TN
600 AM CST TUE JAN 23 2018

TNZ002-004-019-021-049-052-054-088>092-231300-
WEST TENNESSEE

CITY           SKY/WX    TMP DP  RH WIND       PRES   REMARKS
MEMPHIS INTL   FAIR      40  29  64 W9        29.98R WCI  34
NWS MEMPHIS      N/A     41 N/A N/A MISG        N/A
JACKSON        FAIR      40  30  67 W9        29.95R WCI  34
DYERSBURG      CLOUDY    39  30  70 W7        29.96R WCI  34
SOMERVILLE     CLEAR     43  28  56 W8        29.95R
COVINGTON      PTCLDY    39  30  70 NW7       29.97R WCI  34
UNION CITY     CLOUDY    39  30  70 W15G23    29.94R WCI  31
BOLIVAR        MOCLDY    41  28  60 W10G17    29.95R
PARIS          CLOUDY    39  28  65 W9G17     29.91R WCI  33
HUNTINGDON     CLOUDY    39  28  65 W10       29.92R WCI  32
LEXINGTON      CLEAR     41  28  60 W8G22     29.94R
SELMER         MOCLDY    39  28  65 W6        29.94R WCI  35
SAVANNAH       MOCLDY    41  30  65 SW9       29.94R
$$

TNZ008-025-027-028-033-062-065-066-231300-
NORTH MIDDLE TENNESSEE

CITY           SKY/WX    TMP DP  RH WIND       PRES   REMARKS
NASHVILLE      CLOUDY    45  28  51 SW6       29.89R
PORTLAND       CLOUDY    45  30  57 W12G20    29.86R
CLARKSVILLE    CLOUDY    42  26  53 W12G23    29.89R
SMYRNA         MOCLDY    42  29  59 S5        29.91R
COOKEVILLE     PTCLDY    39  28  65 SW6       29.88R WCI  35
GALLATIN       CLOUDY    46  28  49 VRB7G16   29.90R
CROSSVILLE     FAIR      38  26  62 W10G21    29.86R WCI  31
$$

TNZ061-075-076-078-094-096-097-231300-
SOUTH MIDDLE TENNESSEE

CITY           SKY/WX    TMP DP  RH WIND       PRES   REMARKS
FAYETTEVILLE   CLEAR     37  30  75 SW6       29.93R WCI  33
TULLAHOMA      PTCLDY    37  28  70 SW7       29.90S WCI  32
WINCHESTER     PTCLDY    39  28  65 SW5       29.93R
MCMINNVILLE    CLEAR     37  28  70 SW8       29.90R WCI  31
COLUMBIA       CLEAR     39  28  65 SW7       29.90R WCI  34
SHELBYVILLE    PTCLDY    39  28  65 SW8       29.91R WCI  34
$$

TNZ017-018-042-046-047-231300-
NORTHEAST TENNESSEE

CITY           SKY/WX    TMP DP  RH WIND       PRES   REMARKS
TRI CITIES     FAIR      50  39  66 SW21G26   29.79R
ELIZABETHTON   CLOUDY    54  43  66 W6        29.78R
$$

TNZ012-013-036-069-073-074-231300-
CENTRAL EAST TENNESSEE

CITY           SKY/WX    TMP DP  RH WIND       PRES   REMARKS
KNOXVILLE      FAIR      45  30  55 SW18      29.87R
DOWNTOWN KNOXV CLEAR     46  32  57 W12       29.87R
GATLINBURG     CLEAR     50  30  46 W12G18    29.85R
JACKSBORO      CLEAR     45  28  53 SW13G20   29.88R
$$

TNZ083-085-099-231300-
SOUTHEAST TENNESSEE

CITY           SKY/WX    TMP DP  RH WIND       PRES   REMARKS
CHATTANOOGA    FAIR      45  28  51 VRB3      29.93R
DAYTON         SUNNY     45  32  61 SW7G13    29.91R
$$

SKY/WX REPORTED AS FAIR MEANS FEW OR NO CLOUDS BELOW
12 THOUSAND FEET.





USA.gov is the U.S. government's official web portal to all federal, state and local government web resources and services.